Location: Civry
(47.2902°N, 4.6156°E)
Time: 01:12:36
(UTC+00:00)

Meteor 1-11 - Pass Details

Date: 09 April 2020
Orbit: 841 x 886 km, 81.2° (Epoch: 30 May)

Event Time Altitude Azimuth Distance (km) Brightness Sun altitude
Rises 19:34:29 0° 347° (NNW) 3,484 8.0 -12.3°
Reaches altitude 10° 19:36:58 10° 345° (NNW) 2,535 7.3 -12.6°
Maximum altitude 19:42:42 73° 262° (W) 906 4.5 -13.5°
Drops below altitude 10° 19:48:20 10° 179° (S) 2,486 6.3 -14.3°
Sets 19:50:44 0° 177° (S) 3,412 7.0 -14.7°
Enters shadow 19:50:47 - 177° (S) 3,433 7.1 -14.7°
